Regional Weather Roundup
Issued by NWS

Home | Current Version | Previous Version | Graphics & Text | Print | Product List | Glossary On
Versions: 1 2 3 4 5 6 7 8 9 10 11 12 13 14 15 16 17 18 19 20 21 22 23 24 25 26 27 28 29 30 31 32 33 34 35 36 37 38 39 40 41 42 43 44 45 46 47 48 49 50
000
ASUS43 KDMX 222108
RWRIA

WEATHER ROUNDUP FOR IOWA
NATIONAL WEATHER SERVICE DES MOINES IA
400 PM CDT FRI JUL 22 2016

NOTE: "FAIR" INDICATES FEW OR NO CLOUDS BELOW 12,000 FEET WITH NO
SIGNIFICANT WEATHER AND/OR OBSTRUCTIONS TO VISIBILITY.

* - THESE STATIONS ARE NOT NWS STATIONS...THUS NOT UNDER NWS
QUALITY CONTROL.  THEY ALSO DO NOT REPORT WEATHER SUCH
AS PRECIPITATION OR FOG.

IAZ001>003-012>014-020>022-031>034-043>046-222200-
   NORTHWEST IOWA

CITY           SKY/WX    TMP DP  RH WIND       PRES   REMARKS
CARROLL *      MOSUNNY   90  79  70 S12       29.96S HX 105
CHEROKEE *     MOSUNNY   91  80  70 SE8       29.94F HX 109
DENISON *      PTSUNNY   88  79  74 S8        29.93F HX 102
LE MARS *      PTSUNNY   91  79  66 VRB7      29.94S HX 107
SHELDON *      PTSUNNY   90  82  79 MISG      29.96S HX 111
SIOUX CITY     MOSUNNY   94  77  57 SE12      29.92F HX 108
SPENCER        PTSUNNY   88  78  72 E10       29.98S HX 101
STORM LAKE *   SUNNY     90  79  70 S9        29.97S HX 105
$$

IAZ055>058-069>071-079>083-090>094-222200-
   SOUTHWEST IOWA

CITY           SKY/WX    TMP DP  RH WIND       PRES   REMARKS
ATLANTIC *     SUNNY     90  79  70 S13       29.95F HX 105
CLARINDA *       N/A     90  79  70 MISG      29.97F HX 105
COUNCIL BLFS * MOSUNNY   91  81  70 S12       29.94F HX 110
CRESTON *      CLOUDY    88  77  70 SW14      29.98F HX 100
HARLAN  *      MOSUNNY   90  79  70 S15       29.98F HX 105
LAMONI         CLOUDY    88  77  69 SW14      29.97F HX 100
RED OAK *      SUNNY     90  79  70 S14G22    29.95F HX 105
SHENANDOAH *   SUNNY     91  81  70 S14G20    29.94F HX 110
$$

IAZ047>049-059>061-072>074-084-222200-
   CENTRAL IOWA

CITY           SKY/WX    TMP DP  RH WIND       PRES   REMARKS
AMES           SUNNY     90  80  72 SW8       29.97F HX 107
ANKENY *         N/A    N/A N/A N/A MISG        N/A
BOONE *        SUNNY     90  77  66 S8        29.98R HX 102
CHARITON *       N/A    N/A N/A N/A MISG        N/A
DES MOINES     CLOUDY    91  76  61 SW7       29.95F HX 103
GRINNELL*      MOSUNNY   86  74  68 S6        30.00F HX  93
KNOXVILLE *    MOSUNNY   88  77  70 SW5       29.97F HX 100
MARSHALLTOWN   MOSUNNY   88  78  72 MISG      29.98F HX 101
NEWTON *       CLOUDY    88  79  74 VRB6      29.98F HX 102
PELLA *        CLOUDY    90  75  62 SW5       29.98F HX 100
PERRY *          N/A     90  81  74 S9        29.96F HX 109
$$

IAZ004>006-015-016-023>025-035-036-222200-
   NORTH CENTRAL IOWA

CITY           SKY/WX    TMP DP  RH WIND       PRES   REMARKS
ALGONA *       PTSUNNY   88  79  74 E6        29.99S HX 102
ESTHERVILLE    CLOUDY    85  81  88 NE10      29.99S HX 100
FORT DODGE *   CLOUDY    90  79  70 S6        29.98S HX 105
MASON CITY     CLOUDY    85  79  82 NE3       30.02R HX  98
FOREST CITY *  CLOUDY    82  77  83 E3        30.01R HX  91
IOWA FALLS *     N/A     91  77  63 W8        30.00R HX 103
$$

IAZ007>011-017>019-026>030-037>042-050>054-066-222200-
   NORTHEAST IOWA

CITY           SKY/WX    TMP DP  RH WIND       PRES   REMARKS
CEDAR RAPIDS   PTSUNNY   86  79  79 SW6       29.98F HX  99
CHARLES CITY * CLOUDY    86  81  84 NE5       30.01S HX 102
CLINTON *      CLOUDY    84  75  74 W5        30.01F HX  92
DECORAH *      PTSUNNY   86  79  79 VRB3      30.00F HX  99
DUBUQUE        PTSUNNY   86  75  69 NE5       30.01F HX  95
MONTICELLO *   CLOUDY    86  77  74 CALM      29.99F HX  97
OELWEIN *      CLOUDY    86  79  79 CALM      30.01S HX  99
WATERLOO       MOSUNNY   88  76  67 VRB7      29.97F HX  99
$$

IAZ064-065-067-068-078-222200-
   EAST CENTRAL IOWA

CITY           SKY/WX    TMP DP  RH WIND       PRES   REMARKS
DAVENPORT      MOSUNNY   86  73  65 CALM      30.01F HX  93
IOWA CITY      MOSUNNY   86  77  74 S8        29.99F HX  97
MT. PLEASANT * MOSUNNY   90  79  69 SW3       30.00F HX 105
MUSCATINE *    MOSUNNY   88  75  66 VRB5      29.99F HX  97
QUAD CITIES    MOSUNNY   89  74  60 SW3       29.99F HX  98
$$

IAZ062-063-075>077-085>089-095>099-222200-
   SOUTHEAST IOWA

CITY           SKY/WX    TMP DP  RH WIND       PRES   REMARKS
BURLINGTON     MOSUNNY   87  77  72 SW3       30.00F HX  99
FAIRFIELD *    PTSUNNY   88  77  70 VRB5      29.99F HX 100
KEOKUK *       MOSUNNY   88  77  70 CALM      30.00S HX 100
CENTERVILLE *    N/A     88  75  66 S7        30.01S HX  97
OTTUMWA        CLOUDY    87  74  64 S6        29.99F HX  95
WASHINGTON *   SUNNY     86  79  79 CALM      30.00F HX  99
$$

ABBREVIATIONS USED IN REMARKS
   TC - TEMPERATURES IN CELSIUS
  WCI - WIND CHILL INDEX
   HX - HEAT INDEX
  VSB - VISIBILITY
$$





USA.gov is the U.S. government's official web portal to all federal, state and local government web resources and services.